Weather History for KASH - October, 2014

Change the Weather History Date:

Wednesday, October 22, 2014

  Actual Average Record
Temperature  
Mean Temperature 49 °F -  
Max Temperature 51 °F 61 °F 85 °F (1979)
Min Temperature 47 °F 36 °F 17 °F (1948)
Degree Days  
Heating Degree Days 16    
Moisture  
Dew Point 48 °F    
Average Humidity 94    
Maximum Humidity 100    
Minimum Humidity 88    
Precipitation  
Precipitation 0.00 in - - ()
Sea Level Pressure  
Sea Level Pressure 30.29 in    
Wind  
Wind Speed 9 mph (NNE)    
Max Wind Speed 17 mph    
Max Gust Speed 24 mph    
Visibility 4 miles    
Events Rain    
Averages and records for this station are not official NWS values.
T = Trace of Precipitation, MM = Missing Value Source: NWS Daily Summary

Daily Weather History Graph

Daily Weather History Graph

Search for Another Location

Airport or City:

Trip Planner

Search our weather history database for the weather conditions in past years. The results will help you decide how hot, cold, wet, or windy it might be!

Date:

Astronomy

Oct. 22, 2014 Rise Set
Actual Time 7:07 AM EDT 5:52 PM EDT
Civil Twilight 6:38 AM EDT 6:21 PM EDT
Nautical Twilight 6:05 AM EDT 6:54 PM EDT
Astronomical Twilight 5:33 AM EDT 7:27 PM EDT
Moon 5:44 AM EDT (10/22) 5:18 PM EDT (10/22)
Length of Visible Light 11h 42m
Length of Day
10h 44m
Waning Crescent, 2% of the Moon is Illuminated
Oct 22
Waning Crescent
Oct 23
New
Oct 30
First Quarter
Nov 6
Full
Nov 14
Last Quarter

Hourly Weather History & Observations

Time (EDT) Temp. Dew Point Humidity Pressure Visibility Wind Dir Wind Speed Gust Speed Precip Events Conditions
12:36 AM 50.0 °F 48.2 °F 94% 30.02 in 10.0 mi North 6.9 mph - N/A   Overcast
12:51 AM 50.0 °F 48.9 °F 96% 30.76 in 10.0 mi North 5.8 mph - N/A   Overcast
1:51 AM 50.0 °F 48.9 °F 96% 30.76 in 10.0 mi North 5.8 mph - N/A   Overcast
2:51 AM 50.0 °F 47.8 °F 92% 30.76 in 10.0 mi North 5.8 mph - N/A   Overcast
3:51 AM 50.0 °F 47.8 °F 92% 30.75 in 10.0 mi North 5.8 mph - N/A   Overcast
4:13 AM 50.0 °F 48.2 °F 94% 30.02 in 10.0 mi North 6.9 mph - N/A   Overcast
4:51 AM 50.0 °F 48.9 °F 96% 30.76 in 4.0 mi North 9.2 mph - 0.00 in Rain Light Rain
5:51 AM 50.0 °F 48.9 °F 96% 30.78 in 5.0 mi North 9.2 mph - 0.00 in Rain Light Rain
6:30 AM 50.0 °F 48.2 °F 94% 30.04 in 2.5 mi North 8.1 mph - 0.00 in Rain Light Rain
6:42 AM 50.0 °F 48.2 °F 94% 30.05 in 4.0 mi North 8.1 mph - 0.00 in Rain Light Rain
6:51 AM 50.0 °F 48.9 °F 96% 30.79 in 2.5 mi North 6.9 mph 16.1 mph 0.00 in Rain Light Rain
7:51 AM 50.9 °F 48.9 °F 93% 30.80 in 2.5 mi NNE 12.7 mph 19.6 mph 0.00 in Rain Light Rain
7:58 AM 51.8 °F 48.2 °F 88% 30.06 in 3.0 mi NNE 8.1 mph 19.6 mph 0.00 in Rain Light Rain
8:51 AM 50.9 °F 48.9 °F 93% 30.82 in 4.0 mi NNE 10.4 mph 16.1 mph 0.00 in   Overcast
9:25 AM 50.0 °F 48.2 °F 94% 30.09 in 2.0 mi NNE 9.2 mph - 0.00 in Rain Light Rain
9:51 AM 50.0 °F 48.9 °F 96% 30.83 in 3.0 mi NNE 10.4 mph - 0.00 in Rain Light Rain
9:53 AM 50.0 °F 48.2 °F 94% 30.09 in 2.5 mi NNE 5.8 mph - 0.00 in Rain Light Rain
9:56 AM 50.0 °F 48.2 °F 94% 30.09 in 3.0 mi NNE 8.1 mph - 0.00 in Rain Light Rain
10:25 AM 50.0 °F 48.2 °F 94% 30.08 in 2.5 mi NNE 8.1 mph - 0.00 in Rain Light Rain
10:35 AM 50.0 °F 48.2 °F 94% 30.08 in 4.0 mi NNE 6.9 mph 16.1 mph 0.00 in   Overcast
10:51 AM 50.0 °F 48.9 °F 96% 30.82 in 4.0 mi NNE 10.4 mph - 0.00 in   Overcast
10:58 AM 50.0 °F 48.2 °F 94% 30.07 in 2.0 mi North 10.4 mph - 0.00 in Rain Light Rain
11:21 AM 50.0 °F 48.2 °F 94% 30.06 in 2.0 mi North 9.2 mph - 0.00 in Rain Light Rain
11:51 AM 50.0 °F 48.9 °F 96% 30.80 in 2.0 mi NNE 10.4 mph - 0.00 in Rain Light Rain
12:42 PM 50.0 °F 48.2 °F 94% 30.03 in 5.0 mi North 8.1 mph - 0.00 in Rain Light Rain
12:51 PM 50.0 °F 48.9 °F 96% 30.77 in 2.0 mi North 10.4 mph - 0.00 in   Overcast
12:58 PM 50.0 °F 48.2 °F 94% 30.02 in 4.0 mi Variable 6.9 mph - N/A   Overcast
1:51 PM 50.0 °F 48.9 °F 96% 30.76 in 2.5 mi North 11.5 mph 16.1 mph 0.00 in Rain Light Rain
2:00 PM 50.0 °F 48.2 °F 94% 30.01 in 5.0 mi North 8.1 mph - 0.00 in Rain Light Rain
2:30 PM 50.0 °F 48.2 °F 94% 30.01 in 2.0 mi NNE 8.1 mph - 0.00 in Rain Light Rain
2:44 PM 50.0 °F 48.2 °F 94% 30.00 in 1.5 mi North 9.2 mph - 0.00 in Rain Rain
2:51 PM 50.0 °F 48.9 °F 96% 30.74 in 4.0 mi North 8.1 mph - 0.00 in Rain Light Rain
3:18 PM 50.0 °F 48.2 °F 94% 29.99 in 2.0 mi NNE 8.1 mph 19.6 mph 0.00 in Rain Light Rain
3:20 PM 50.0 °F 48.2 °F 94% 29.99 in 2.0 mi North 9.2 mph - 0.00 in Rain Light Rain
3:30 PM 50.0 °F 48.2 °F 94% 29.99 in 8.0 mi NNE 13.8 mph 19.6 mph 0.00 in Rain Light Rain
3:51 PM 50.0 °F 47.8 °F 92% 30.74 in 3.0 mi NNE 8.1 mph - 0.00 in Rain Light Rain
3:59 PM 50.0 °F 48.2 °F 94% 29.99 in 2.0 mi NNE 11.5 mph 19.6 mph 0.00 in Rain Light Rain
4:13 PM 50.0 °F 48.2 °F 94% 29.98 in 5.0 mi NNE 12.7 mph - 0.00 in   Overcast
4:40 PM 50.0 °F 48.2 °F 94% 29.98 in 2.5 mi NNE 11.5 mph 19.6 mph 0.00 in Rain Light Rain
4:51 PM 50.0 °F 47.8 °F 92% 30.72 in 3.0 mi NNE 10.4 mph - 0.00 in Rain Light Rain
5:04 PM 50.0 °F 48.2 °F 94% 29.97 in 2.5 mi NNE 13.8 mph 23.0 mph 0.00 in Rain Light Rain
5:14 PM 48.2 °F 48.2 °F 100% 29.97 in 1.2 mi NNE 10.4 mph 18.4 mph 0.00 in Rain Light Rain
5:17 PM 48.2 °F 48.2 °F 100% 29.98 in 1.5 mi NNE 8.1 mph 18.4 mph 0.00 in Rain Light Rain
5:25 PM 48.2 °F 48.2 °F 100% 29.97 in 1.8 mi North 10.4 mph 16.1 mph 0.00 in Rain Light Rain
5:44 PM 48.2 °F 46.4 °F 93% 29.97 in 2.5 mi NNE 13.8 mph 20.7 mph 0.00 in Rain Light Rain
5:51 PM 48.9 °F 46.9 °F 93% 30.71 in 2.5 mi NNE 12.7 mph 21.9 mph 0.00 in Rain Light Rain
6:00 PM 48.2 °F 46.4 °F 93% 29.96 in 3.0 mi NNE 15.0 mph 18.4 mph 0.00 in Rain Light Rain
6:07 PM 48.2 °F 46.4 °F 93% 29.97 in 2.5 mi NNE 17.3 mph 23.0 mph 0.00 in Rain Light Rain
6:51 PM 47.8 °F 46.9 °F 97% 30.70 in 2.0 mi North 11.5 mph 19.6 mph 0.00 in Rain Light Rain
7:06 PM 48.2 °F 46.4 °F 93% 29.95 in 4.0 mi NNE 11.5 mph 20.7 mph 0.00 in Rain Light Rain
7:19 PM 48.2 °F 46.4 °F 93% 29.95 in 4.0 mi NNE 12.7 mph 19.6 mph 0.00 in Rain Light Rain
7:51 PM 47.8 °F 46.9 °F 97% 30.69 in 3.0 mi NNE 9.2 mph 17.3 mph 0.00 in Rain Light Rain
8:02 PM 48.2 °F 46.4 °F 93% 29.95 in 2.5 mi NNE 10.4 mph 18.4 mph 0.00 in Rain Light Rain
8:27 PM 48.2 °F 46.4 °F 93% 29.95 in 3.0 mi NNE 12.7 mph 20.7 mph 0.00 in Rain Light Rain
8:51 PM 47.8 °F 46.9 °F 97% 30.69 in 2.5 mi NNE 12.7 mph 17.3 mph 0.00 in Rain Light Rain
9:06 PM 48.2 °F 46.4 °F 93% 29.94 in 3.0 mi NNE 13.8 mph 19.6 mph 0.00 in Rain Light Rain
9:21 PM 48.2 °F 46.4 °F 93% 29.93 in 2.5 mi NNE 15.0 mph 24.2 mph 0.00 in Rain Light Rain
9:36 PM 48.2 °F 46.4 °F 93% 29.91 in 6.0 mi North 16.1 mph 23.0 mph 0.00 in Rain Light Rain
9:51 PM 47.8 °F 46.9 °F 97% 30.65 in 8.0 mi NNE 12.7 mph 19.6 mph 0.00 in   Overcast
10:51 PM 48.9 °F 45.9 °F 89% 30.63 in 10.0 mi NNE 12.7 mph 21.9 mph 0.00 in Rain Light Rain
11:37 PM 48.2 °F 46.4 °F 93% 29.89 in 2.0 mi NNE 15.0 mph 18.4 mph 0.00 in Rain Heavy Rain
11:51 PM 47.8 °F 45.9 °F 93% 30.62 in 7.0 mi North 10.4 mph - 0.00 in Rain Light Rain